Content
SEND FEEDBACK

Daily
Averages
Monthly
Summary
Australia

CANNONVALE, QUEENSLAND


Home > Oceania > Australia > Queensland
Elevation: 6 feet     Latitude: 20 03S     Longitude: 148 53E

WEATHER
 
SELECT A DAY
Number of Records: 145,380;   Date Range: 10/22/03 - 12/24/14
 
SHARE

PRINT THIS DATA

[ ← Previous Day ]
WEATHER ALMANAC - JANUARY 31, 2013
[ Next Day → ]
[ °C ]   °F
Weather ElementAverageHighLow
Temperature82.3 °F87.8 °F (10:30 am)80 °F (9:00 pm)
Dewpoint78.1 °F80.6 °F (12:30 am)75 °F (6:00 pm)
Humidity86.9 %100 % (12:30 am)71 % (12:00 pm)
Barometer29.80 in29.84 in (9:00 am)29.76 in (3:00 am)
Wind Speed15.7 mph29.9 mph (3:30 pm)
Weather ElementAverage
Wind DirectionESE (119.8 °)

Weather ElementTotal
Precipitation---
Cooling Degree Days18.9 (Base 65)
Growing Degree Days33.9 (Base 50)
Averaged from 55 records on January 31, 2013
WEATHER CONDITIONS BREAKOUT
WIND DIRECTION BREAKOUT
WEATHER BY HOUR - JANUARY 31, 2013
[ °C ]   °F
Local TimeTemperatureDewpointHumidityBarometerVisibilityWind DirectionWind SpeedGust SpeedPrecipitationEventsConditions
12:00 AM80.6 °F78.8 °F94 %29.80 inENE (70°)5.8 mph
12:30 AM80.6 °F80.6 °F100 %29.80 inNE (50°)5.8 mph
1:00 AM80.6 °F80.6 °F100 %29.80 inENE (70°)6.9 mph
1:30 AM80.6 °F80.6 °F100 %29.77 inEast (80°)6.9 mph
2:00 AM80.6 °F80.6 °F100 %29.77 inEast (100°)10.4 mph
2:30 AM80.6 °F80.6 °F100 %29.77 inEast (100°)10.4 mph
3:00 AM80.6 °F78.8 °F94 %29.77 inESE (110°)12.7 mph
3:00 AM81.0 °F79.0 °F92 %29.76 inESE (110°)12.7 mph
3:30 AM80.6 °F80.6 °F100 %29.77 inESE (120°)10.4 mph
4:00 AM80.6 °F78.8 °F94 %29.77 inSE (130°)9.2 mph
4:30 AM80.6 °F78.8 °F94 %29.77 inSE (140°)9.2 mph
5:00 AM80.6 °F78.8 °F94 %29.77 inSE (130°)9.2 mph
5:30 AM80.6 °F78.8 °F94 %29.80 inSE (140°)9.2 mph
6:00 AM80.6 °F78.8 °F94 %29.80 inSSE (160°)8.1 mph
6:00 AM81.0 °F79.0 °F91 %29.80 inSSE (160°)8.1 mph
6:30 AM82.4 °F78.8 °F89 %29.80 inSSE (150°)11.5 mph
7:00 AM82.4 °F78.8 °F89 %29.83 inSSE (150°)11.5 mph
7:30 AM82.4 °F80.6 °F94 %29.83 inSouth (170°)10.4 mph
8:00 AM84.2 °F80.6 °F89 %29.83 inSSE (160°)10.4 mph
8:30 AM84.2 °F80.6 °F89 %29.83 inSSE (150°)11.5 mph
9:00 AM84.2 °F78.8 °F84 %29.83 inSSE (150°)15.0 mph
9:00 AM84.0 °F79.0 °F82 %29.84 inSSE (150°)15.0 mph
9:30 AM86.0 °F78.8 °F79 %29.83 inSSE (150°)15.0 mph
10:00 AM86.0 °F78.8 °F79 %29.83 inSSE (150°)13.8 mph
10:30 AM87.8 °F80.6 °F79 %29.83 inSSE (150°)13.8 mph
11:00 AM86.0 °F78.8 °F79 %29.83 inSSE (150°)17.3 mph
11:30 AM86.0 °F78.8 °F79 %29.83 inSSE (150°)17.3 mph
12:00 PM86.0 °F78.8 °F79 %29.83 inSSE (150°)17.3 mph
12:00 PM86.0 °F78.0 °F71 %29.82 inSSE (150°)17.3 mph
12:30 PM86.0 °F78.8 °F79 %29.80 inSSE (150°)19.6 mph
1:00 PM86.0 °F78.8 °F79 %29.80 inSSE (150°)20.7 mph
1:30 PM86.0 °F78.8 °F79 %29.80 inSSE (150°)20.7 mph
2:00 PM86.0 °F78.8 °F79 %29.77 inSE (130°)21.9 mph
2:30 PM86.0 °F77.0 °F74 %29.77 inSE (130°)23.0 mph
3:00 PM84.2 °F78.8 °F84 %29.77 inESE (110°)27.6 mph
3:00 PM83.0 °F78.0 °F81 %29.77 inESE (120°)27.6 mph
3:30 PM82.4 °F77.0 °F84 %29.77 inEast (100°)29.9 mph
4:00 PM80.6 °F77.0 °F89 %29.77 inEast (100°)28.8 mph
4:30 PM80.6 °F77.0 °F89 %29.77 inEast (100°)25.3 mph
5:00 PM80.6 °F77.0 °F89 %29.77 inEast (100°)25.3 mph
5:30 PM80.6 °F77.0 °F89 %29.77 inEast (90°)24.2 mph
6:00 PM80.6 °F75.2 °F84 %29.77 inEast (100°)23.0 mph
6:00 PM81.0 °F75.0 °F77 %29.78 inEast (100°)23.0 mph
6:30 PM80.6 °F75.2 °F84 %29.77 inEast (100°)19.6 mph
7:00 PM80.6 °F75.2 °F84 %29.80 inEast (100°)18.4 mph
7:30 PM80.6 °F77.0 °F89 %29.80 inEast (90°)18.4 mph
8:00 PM80.6 °F77.0 °F89 %29.80 inEast (90°)16.1 mph
8:30 PM80.6 °F75.2 °F84 %29.80 inEast (90°)17.3 mph
9:00 PM80.6 °F75.2 °F84 %29.83 inEast (90°)15.0 mph
9:00 PM80.0 °F75.0 °F80 %29.82 inEast (90°)15.0 mph
9:30 PM80.6 °F75.2 °F84 %29.83 inEast (90°)15.0 mph
10:00 PM80.6 °F75.2 °F84 %29.83 inEast (90°)15.0 mph
10:30 PM80.6 °F77.0 °F89 %29.83 inESE (110°)13.8 mph
11:00 PM80.6 °F75.2 °F84 %29.83 inESE (110°)12.7 mph
11:30 PM80.6 °F75.2 °F84 %29.83 inESE (110°)12.7 mph
Hourly data recorded from YBHM, located miles away from Cannonvale, Queensland







STORIES FROM OUR PARTNERS